DAL42 KATL-LFPG

Flight info

Callsign DAL42
Flight time N/A
Altitude 41000
Route PHIIL3 HRTWL Q64 SAWED Q108 ZJAAY Q167 RIFLE DCT YAHOO DCT WHALE N129B RELIC/M085F400 DCT 4630N05000W 4830N04000W 4930N03000W 5030N02000W DCT RODEL DCT EPUNA/M085F410 DCT ARKIL/N0495F410 DCT ANNET UM25 INGOR/N0490F280 UM25 LUKIP
Aircraft A359/H-SDE2E3GHIJ3J4J5LM1ORWXY/LB1D1

Departure

Time N/A
Airport Hartsfield Jackson Atlanta International Airport (KATL)

Arrival

Time 2026-05-03 20:27
Airport Charles de Gaulle International Airport (LFPG)
Time Latitude Longitude Altitude Speed Heading
2026-05-03 20:15 49.27497 2.73872 7624 ft 287 kts 117°
2026-05-03 20:15 49.26692 2.76661 7370 ft 285 kts 117°
2026-05-03 20:15 49.25893 2.79438 7123 ft 284 kts 117°
2026-05-03 20:15 49.25097 2.82209 6897 ft 283 kts 117°
2026-05-03 20:16 49.24305 2.84960 6655 ft 282 kts 117°
2026-05-03 20:16 49.23517 2.87697 6406 ft 281 kts 117°
2026-05-03 20:16 49.22727 2.90433 6086 ft 280 kts 117°
2026-05-03 20:16 49.21953 2.93121 5657 ft 278 kts 117°
2026-05-03 20:17 49.21176 2.95819 5223 ft 276 kts 117°
2026-05-03 20:17 49.20412 2.98459 5020 ft 266 kts 117°
2026-05-03 20:17 49.19671 3.01027 4994 ft 264 kts 117°
2026-05-03 20:17 49.18931 3.03605 4995 ft 265 kts 117°
2026-05-03 20:18 49.18192 3.06176 4993 ft 264 kts 117°
2026-05-03 20:18 49.17433 3.08729 4993 ft 263 kts 120°
2026-05-03 20:18 49.16287 3.10840 4995 ft 256 kts 148°
2026-05-03 20:18 49.14684 3.11828 5001 ft 247 kts 176°
2026-05-03 20:19 49.13043 3.11489 5007 ft 234 kts 205°
2026-05-03 20:19 49.11774 3.10012 5012 ft 229 kts 228°
2026-05-03 20:19 49.10755 3.08127 4998 ft 230 kts 231°
2026-05-03 20:19 49.09772 3.06185 5001 ft 232 kts 232°
2026-05-03 20:20 49.08785 3.04233 4994 ft 232 kts 232°
2026-05-03 20:20 49.07807 3.02300 4996 ft 233 kts 232°
2026-05-03 20:20 49.06804 3.00318 5004 ft 233 kts 232°
2026-05-03 20:20 49.05829 2.98390 4988 ft 233 kts 232°
2026-05-03 20:21 49.05031 2.96256 5002 ft 234 kts 250°
2026-05-03 20:21 49.04698 2.93827 4998 ft 235 kts 261°
2026-05-03 20:21 49.04551 2.91363 4964 ft 227 kts 263°
2026-05-03 20:21 49.04429 2.88999 4750 ft 221 kts 263°
2026-05-03 20:22 49.04301 2.86682 4428 ft 219 kts 263°
2026-05-03 20:22 49.04178 2.84407 4079 ft 209 kts 263°
2026-05-03 20:22 49.04065 2.82276 3789 ft 194 kts 263°
2026-05-03 20:22 49.03959 2.80310 3537 ft 178 kts 263°
2026-05-03 20:23 49.03862 2.78507 3304 ft 165 kts 263°
2026-05-03 20:23 49.03772 2.76824 3068 ft 153 kts 263°
2026-05-03 20:23 49.03691 2.75287 2866 ft 138 kts 262°
2026-05-03 20:23 49.03616 2.73898 2701 ft 126 kts 262°
2026-05-03 20:24 49.03546 2.72598 2525 ft 124 kts 262°
2026-05-03 20:24 49.03476 2.71288 2368 ft 124 kts 262°
2026-05-03 20:24 49.03406 2.69977 2205 ft 124 kts 262°
2026-05-03 20:24 49.03336 2.68664 2043 ft 124 kts 262°
2026-05-03 20:25 49.03266 2.67348 1863 ft 124 kts 262°
2026-05-03 20:25 49.03196 2.66040 1705 ft 124 kts 262°
2026-05-03 20:25 49.03125 2.64729 1507 ft 124 kts 262°
2026-05-03 20:25 49.03047 2.63420 1329 ft 124 kts 262°
2026-05-03 20:26 49.02956 2.62102 1193 ft 126 kts 262°
2026-05-03 20:26 49.02885 2.60769 1014 ft 127 kts 264°
2026-05-03 20:26 49.02849 2.59436 821 ft 128 kts 265°
2026-05-03 20:26 49.02785 2.58077 640 ft 128 kts 262°
2026-05-03 20:27 49.02704 2.56727 489 ft 129 kts 262°
2026-05-03 20:27 49.02630 2.55360 394 ft 129 kts 263°
2026-05-03 20:27 49.02554 2.54181 363 ft 75 kts 265°
2026-05-03 20:27 49.02537 2.53837 369 ft 5 kts 265°
2026-05-03 20:28 49.02535 2.53785 370 ft 19 kts 265°
2026-05-03 20:28 49.02514 2.53535 371 ft 25 kts 250°
2026-05-03 20:28 49.02426 2.53290 369 ft 26 kts 236°
2026-05-03 20:28 49.02346 2.53111 366 ft 18 kts 236°
2026-05-03 20:29 49.02242 2.53010 367 ft 19 kts 191°
2026-05-03 20:29 49.02107 2.53019 362 ft 21 kts 176°
2026-05-03 20:29 49.01958 2.53034 361 ft 22 kts 176°
2026-05-03 20:29 49.01859 2.53094 367 ft 13 kts 118°
2026-05-03 20:30 49.01850 2.53244 365 ft 16 kts 88°
2026-05-03 20:30 49.01860 2.53423 364 ft 15 kts 82°
2026-05-03 20:30 49.01847 2.53558 363 ft 13 kts 137°
2026-05-03 20:30 49.01790 2.53675 368 ft 15 kts 95°
2026-05-03 20:31 49.01792 2.53786 366 ft 0 kts 85°
2026-05-03 20:32 49.01792 2.53787 366 ft 1 kts 85°
2026-05-03 20:32 49.01795 2.53853 365 ft 11 kts 85°
2026-05-03 20:33 49.01803 2.54004 368 ft 8 kts 86°
2026-05-03 20:33 49.01803 2.54007 368 ft 0 kts 86°
2026-05-03 20:33 49.01805 2.54063 365 ft 10 kts 86°
2026-05-03 20:34 49.01811 2.54184 367 ft 13 kts 86°
2026-05-03 20:34 49.01819 2.54337 368 ft 16 kts 85°
2026-05-03 20:34 49.01828 2.54516 368 ft 15 kts 85°
2026-05-03 20:34 49.01833 2.54613 367 ft 10 kts 85°
2026-05-03 20:35 49.01841 2.54737 364 ft 13 kts 83°
2026-05-03 20:35 49.01852 2.54893 362 ft 16 kts 83°
2026-05-03 20:35 49.01866 2.55077 365 ft 19 kts 84°
2026-05-03 20:35 49.01875 2.55256 368 ft 17 kts 85°
2026-05-03 20:36 49.01884 2.55452 366 ft 20 kts 86°
2026-05-03 20:36 49.01894 2.55654 366 ft 15 kts 85°
2026-05-03 20:36 49.01902 2.55827 367 ft 18 kts 85°
2026-05-03 20:36 49.01912 2.56029 361 ft 20 kts 86°
2026-05-03 20:37 49.01923 2.56254 361 ft 22 kts 86°
2026-05-03 20:37 49.01935 2.56500 366 ft 24 kts 84°
2026-05-03 20:37 49.01951 2.56734 361 ft 1 kts 84°
2026-05-03 20:39 49.01954 2.56785 361 ft 8 kts 85°
2026-05-03 20:39 49.01960 2.56888 367 ft 12 kts 85°
2026-05-03 20:39 49.01968 2.57026 365 ft 15 kts 85°
2026-05-03 20:39 49.01978 2.57195 363 ft 17 kts 85°
2026-05-03 20:40 49.01989 2.57393 364 ft 20 kts 86°
2026-05-03 20:40 49.02001 2.57614 366 ft 22 kts 85°
2026-05-03 20:40 49.01988 2.57809 367 ft 15 kts 108°
2026-05-03 20:40 49.01920 2.57945 367 ft 17 kts 146°
2026-05-03 20:41 49.01798 2.57994 365 ft 19 kts 174°
2026-05-03 20:41 49.01658 2.58010 364 ft 21 kts 175°
2026-05-03 20:41 49.01518 2.58027 365 ft 17 kts 175°
2026-05-03 20:41 49.01394 2.58043 362 ft 19 kts 175°
2026-05-03 20:42 49.01254 2.58059 366 ft 21 kts 175°
2026-05-03 20:42 49.01119 2.58075 364 ft 13 kts 175°
2026-05-03 20:42 49.01017 2.58088 365 ft 16 kts 175°
2026-05-03 20:42 49.00924 2.58148 367 ft 15 kts 117°
2026-05-03 20:43 49.00923 2.58242 368 ft 0 kts 84°
2026-05-03 20:43 49.00923 2.58245 368 ft 1 kts 84°
2026-05-03 20:43 49.00925 2.58280 367 ft 6 kts 84°
2026-05-03 20:43 49.00930 2.58362 365 ft 10 kts 85°
2026-05-03 20:44 49.00933 2.58482 361 ft 13 kts 90°
2026-05-03 20:44 49.00905 2.58611 368 ft 13 kts 141°
2026-05-03 20:44 49.00845 2.58666 369 ft 5 kts 153°
2026-05-03 20:44 49.00798 2.58674 362 ft 8 kts 181°
2026-05-03 20:45 49.00764 2.58642 368 ft 5 kts 242°
2026-05-03 20:45 49.00763 2.58620 364 ft 0 kts 266°
2026-05-03 20:45 49.00761 2.58584 363 ft 6 kts 266°
2026-05-03 20:45 49.00760 2.58556 361 ft 0 kts 266°
2026-05-03 20:46 49.00760 2.58555 361 ft 0 kts 266°